Location: York
(31.8935°S, 116.7682°E)
Time: 18:37:39
(UTC+08:00)

deb Explorer IX - Pass Details

Date: 25 September 2022
Orbit: 533 x 1057 km, 38.8° (Epoch: 30 November)

Event Time Altitude Azimuth Distance (km) Brightness Sun altitude
Rises 23:09:13 0° 263° (W) 2,959 - -54.6°
Reaches altitude 10° 23:11:51 10° 254° (WSW) 1,974 - -54.8°
Maximum altitude 23:15:57 34° 188° (S) 959 - -55.1°
Drops below altitude 10° 23:19:45 10° 121° (ESE) 1,821 - -55.4°
Sets 23:22:05 0° 111° (ESE) 2,694 - -55.6°
